Погода в Евдокимовской

Россия / Архангельская область     62°24′23″N   43°53′15″E
темп.,
°C
ветер,
м/с
пор.,
м/с
влажн.,
%
обл.,
%
осадки,
мм/ч
давл.,
гПа
погр.,
м
7 августа, вс
вс700:00+18ю28790 0.0 1016151
03:00+17юв29810 0.0 1016203
06:00+20ююв413680 0.0 1014435
09:00+26ююз5124996 0.0 10131007
12:00+29ююз5114329 0.1 10132110
15:00+21зсз37894 1.7 1013190
18:00+17зсз3790100 2.9 1015644
21:00+13зюз1195100 3.1 101612
8 августа, пн
пн800:00+14з2995100 0.0 1016327
03:00+13зсз2693100 0.0 1018230
06:00+13з2487100 0.0 1020165
09:00+18зюз2454100 0.0 1021998
12:00+21зюз344178 0.0 10212025
15:00+22з343590 0.0 10212249
18:00+20зсз254698 0.0 1022373
21:00+14с2267100 0.0 102328
9 августа, вт
вт900:00+13с1169100 0.0 102410
03:00+12св117098 0.0 102410
06:00+14всв116792 0.0 102561
09:00+19вюв12469 0.0 1025696
12:00+23вюв113598 0.0 10252108
15:00+22всв2238100 0.0 10242013
18:00+19всв2451100 0.0 1024165
21:00+16всв2560100 0.0 1024103
10 августа, ср
ср1000:00+15св2760100 0.0 1024168
03:00+11всв267673 0.0 1023104
06:00+13в266764 0.0 1023179
09:00+18всв245081 0.0 1023444
12:00+22всв233390 0.0 10212420
15:00+22ссв333491 0.0 10202219
18:00+20ссз244689 0.0 1020190
21:00+17ссз2659100 0.0 1019147
11 августа, чт
чт1100:00+15св1263100 0.0 101937
03:00+15всв0168100 0.0 101911
06:00+15ююз117299 0.0 101918
09:00+19юз225417 0.0 1019378
12:00+23зюз353737 0.0 10172526
15:00+21зюз3744100 0.0 10161167
18:00+21з3847100 0.0 10151055
21:00+15юз21195100 0.4 1015499